[Date Prev][Date Next][Thread Prev][Thread Next] - [Date Index][Thread Index][Author Index]

2 Line ISS Keps 1-24



ISS1 25544U 98067A   05024.01211806  .00026688  00000-0  21877-3 0  6591
2 25544  51.6473 278.0728 0009268  22.7354 173.4258 15.70244843353010
----
Via the sarex mailing list at AMSAT.ORG courtesy of AMSAT-NA.
To unsubscribe, send "unsubscribe sarex" to Majordomo@amsat.org



AMSAT Top AMSAT Home